{"data":{"norad_id":61630,"intl_designator":"2024-191K","name":"STARLINK-32390","alt_names":[],"object_type":"PAYLOAD","status":"ACTIVE","operator":null,"country":"US","launch_date":"2024-10-23","launch_site_code":"AFETR","launch_vehicle":null,"mission":null,"orbit_class":"UNKNOWN","rcs_meters":null,"size_class":null,"mass_kg":null,"dimensions":null,"purposes":["comms"],"wikipedia_slug":null,"has_3d_model":false,"image_url":null,"decayed_at":null,"tle_current":{"epoch":"2026-09-21T07:46:41.328480Z","epoch_age_seconds":120825,"freshness":"FRESH","line1":"1 61630U 24191K   26264.32408945 -.00000108  00000+0  55951-5 0  9997","line2":"2 61630  43.0005 129.8779 0001074 271.9039  88.1689 15.27575459107453","mean_motion":15.27575459,"eccentricity":0.0001074,"inclination_deg":43.0005,"raan_deg":129.8779,"arg_perigee_deg":271.9039,"mean_anomaly_deg":88.1689,"bstar":5.5951e-6,"rev_number":10745,"period_min":94.267028938961,"perigee_km":482.32580061387,"apogee_km":483.79958630803,"semimajor_km":6861.199693461,"source":"CELESTRAK","updated_at":"2026-09-22T09:00:49.396433Z"}}}